DELTA 1 DEB, 12291

Orbit data source: Space-Track

DELTA 1 DEB, 12291 is space debris in SSO originally from a launch on Sun, 05 Mar 1978 UTC launched from the Air Force Western Test Range (AFWTR). Debris objects in space refer to the collection of defunct objects orbiting the Earth. Examples of debris include non-operational satellites, rocket bodies, and fragments generated from explosions, collisions, or faulty payload assembly.

Loading next visibility...
Identifier
12291, 1978-026EK
Orbit
SSO
Country
Flag of USUS
Related business
Manufacturer
Unknown
Mission
Spacecraft
Bus & Motor
Unknown
Mass
Unknown
Launch date (UTC)
1978-03-05 (48 years ago)
Launch vehicle
Unknown
Launch site
Air Force Western Test Range (AFWTR)
Object type
Payload
Rocket body
Debris
Shape & HBR
Unknown shape, 0.1 m
Radar Cross Section
Medium (>0.1 m² and <1 m²)

Expand to show TLE details & history
Last TLE update: 3 days ago

TLE from 3 days ago
0 DELTA 1 DEB
1 12291U 78026EK  26171.32297677  .00001341  00000-0  47772-3 0  9997
2 12291  99.2821   9.3628 0042034  47.9211 131.9701 14.35621775334130
Epoch: 2026-06-20T07:45Z
TLE epoch observation values (Epoch: 2026-06-20T07:45:05.192Z)
Latitude
-0.36357°
Longitude
164.49281°
Altitude
796.141 km
Speed
7.445 km/s
True Right ascension
12h 37m 12s
True Declination
0° 21' 41"
Sunlit
Object was in daylight at epoch
Visualization orbit readout
Latitude
Unknown
Longitude
Unknown
Altitude
Unknown
Speed
Unknown
Apparent Right ascension
Unknown
Apparent Declination
Unknown
Sunlit
N/A
Visualization observer readout
Local Sidereal Time
07:04:04
Azimuth
Unknown
Elevation
Unknown
Doppler factor
Unknown
Orbital elements
Apogee altitude
800.214 km
Perigee altitude
740.12 km
Semi-major axis
7,148.304 km
Eccentricity
0.0042
Inclination
99.2821°
RAAN
9.3628°
Arg. of periapsis
47.9211°
True anomaly
132.32697°
Mean anomaly
131.9701°
Eccentric anomaly
132.14866°
Mean motion
3.59119 °/min
Orbital period
100.25 mins
BSTAR
0.00047772
Loading maneuver chart data...
Computing Atmospheric mass density...

Documentation

Showing up to 5 results
|